SQ5DCP-1 Weather Reports


Display with metric or nautical units.
time (UTC)temp
F
wind
direction
speed
MPH
gust
MPH
rain 1hr
in
rain 24hr
in
rain mn
in
humidity
%
barometer
mb
20260507161519 64 316 4.0 11.0 0.00 0.00 0.00 65 1012.3
20260507161048 64 344 2.0 8.0 0.00 0.00 0.00 65 1012.3
20260507161017 64 344 2.0 8.0 0.00 0.00 0.00 65 1012.3
20260507160536 64 333 3.0 9.0 0.00 0.00 0.00 65 1012.3
20260507160033 64 311 3.0 9.0 0.00 0.00 0.00 65 1012.2
20260507155531 64 334 4.0 9.0 0.00 0.00 0.00 65 1012.2
20260507155029 64 339 3.0 8.0 0.00 0.00 0.00 65 1012.2
20260507154527 64 14 3.0 7.0 0.00 0.00 0.00 65 1012.2
20260507154026 64 347 4.0 8.0 0.00 0.00 0.00 65 1012.1
20260507153523 64 304 2.0 7.0 0.00 0.00 0.00 65 1012.1
20260507153022 64 318 3.0 7.0 0.00 0.00 0.00 65 1012.1
20260507152520 64 346 2.0 6.0 0.00 0.00 0.00 65 1012.2
20260507152348 64 342 3.0 6.0 0.00 0.00 0.00 65 1012.2
20260507152050 64 342 3.0 6.0 0.00 0.00 0.00 65 1012.2
20260507152018 64 342 3.0 6.0 0.00 0.00 0.00 65 1012.2
20260507151516 65 349 3.0 7.0 0.00 0.00 0.00 65 1012.3
20260507151035 65 305 3.0 7.0 0.00 0.00 0.00 65 1012.1
20260507150533 65 320 3.0 8.0 0.00 0.00 0.00 65 1012.1
20260507150350 65 293 4.0 8.0 0.00 0.00 0.00 65 1012.3
20260507150031 65 293 4.0 8.0 0.00 0.00 0.00 65 1012.3
20260507145530 65 304 6.0 11.0 0.00 0.00 0.00 66 1012.4
20260507145027 64 313 4.0 10.0 0.00 0.00 0.00 66 1012.3
20260507144526 64 289 4.0 10.0 0.00 0.00 0.00 66 1012.2
20260507144025 65 330 5.0 13.0 0.00 0.00 0.00 65 1012.3
20260507143522 65 313 3.0 9.0 0.00 0.00 0.00 66 1012.2
20260507143020 64 292 5.0 9.0 0.00 0.00 0.00 66 1012.2
20260507142518 64 295 5.0 10.0 0.00 0.00 0.00 66 1012.2
20260507142016 64 297 5.0 9.0 0.00 0.00 0.00 66 1012.2
20260507141534 64 338 4.0 8.0 0.00 0.00 0.00 67 1012.1
20260507141033 64 348 5.0 11.0 0.00 0.00 0.00 66 1012.1
20260507140531 64 326 4.0 11.0 0.00 0.00 0.00 67 1012.1
20260507140029 64 345 5.0 11.0 0.00 0.00 0.00 67 1012.1
20260507135527 65 316 3.0 9.0 0.00 0.00 0.00 67 1012.2
20260507135047 65 351 4.0 9.0 0.00 0.00 0.00 66 1012.0
20260507135026 65 351 4.0 9.0 0.00 0.00 0.00 66 1012.0
20260507134524 65 331 3.0 8.0 0.00 0.00 0.00 67 1012.1
20260507134055 65 292 5.0 9.0 0.00 0.00 0.00 67 1012.1
20260507134022 65 292 5.0 9.0 0.00 0.00 0.00 67 1012.1
20260507133520 65 316 5.0 10.0 0.00 0.00 0.00 67 1012.0
20260507133019 64 312 6.0 13.0 0.00 0.00 0.00 68 1012.0
20260507132516 64 297 7.0 15.0 0.00 0.00 0.00 68 1012.1
20260507132035 64 298 7.0 14.0 0.00 0.00 0.00 68 1012.1
20260507131533 64 306 6.0 13.0 0.00 0.00 0.00 67 1012.2
20260507131031 64 301 6.0 15.0 0.00 0.00 0.00 67 1012.2
20260507130529 64 305 4.0 11.0 0.00 0.00 0.00 67 1012.1
20260507130027 64 305 5.0 11.0 0.00 0.00 0.00 67 1012.0
20260507125525 64 320 4.0 9.0 0.00 0.00 0.00 67 1012.0
20260507125024 64 312 4.0 8.0 0.00 0.00 0.00 67 1011.9
20260507124522 65 329 3.0 7.0 0.00 0.00 0.00 67 1011.9
20260507124020 65 318 3.0 10.0 0.00 0.00 0.00 67 1011.8
20260507123518 65 348 5.0 11.0 0.00 0.00 0.00 67 1011.8
20260507123016 64 311 4.0 10.0 0.00 0.00 0.00 68 1011.7
20260507122534 64 322 6.0 14.0 0.00 0.00 0.00 68 1011.7
20260507122033 64 353 5.0 10.0 0.00 0.00 0.00 68 1011.7
20260507121531 64 1 7.0 14.0 0.00 0.00 0.00 69 1011.8
20260507121029 64 315 5.0 11.0 0.00 0.00 0.00 69 1011.8
20260507120527 64 6 6.0 11.0 0.00 0.00 0.00 69 1011.8
20260507120025 64 1 5.0 13.0 0.00 0.00 0.00 68 1011.7
20260507115523 65 352 6.0 14.0 0.00 0.00 0.00 68 1011.6
20260507115022 65 353 6.0 14.0 0.00 0.00 0.00 68 1011.6
20260507114520 65 349 5.0 10.0 0.00 0.00 0.00 68 1011.6
20260507114018 65 350 5.0 15.0 0.00 0.00 0.00 68 1011.5
20260507113516 65 335 4.0 10.0 0.00 0.00 0.00 68 1011.5
20260507113035 65 318 4.0 7.0 0.00 0.00 0.00 68 1011.5
20260507112533 66 317 5.0 13.0 0.00 0.00 0.00 67 1011.4
20260507112031 66 313 6.0 14.0 0.00 0.00 0.00 67 1011.3
20260507111530 66 308 6.0 13.0 0.00 0.00 0.00 67 1011.3
20260507111027 66 327 6.0 10.0 0.00 0.00 0.00 67 1011.1
20260507110526 66 327 6.0 11.0 0.00 0.00 0.00 66 1011.1
20260507110024 67 319 7.0 14.0 0.00 0.00 0.00 66 1011.0
20260507105522 67 292 7.0 11.0 0.00 0.00 0.00 65 1011.0
20260507105020 67 307 3.0 9.0 0.00 0.00 0.00 65 1010.8
20260507104518 68 319 4.0 10.0 0.00 0.00 0.00 64 1010.7
20260507104018 68 308 5.0 13.0 0.00 0.00 0.00 64 1010.7
20260507103535 68 308 4.0 10.0 0.00 0.00 0.00 63 1010.6
20260507103033 68 308 5.0 9.0 0.00 0.00 0.00 63 1010.6
20260507102531 68 302 5.0 11.0 0.00 0.00 0.00 63 1010.3
20260507102031 69 301 6.0 17.0 0.00 0.00 0.00 63 1010.3
20260507101528 68 291 4.0 8.0 0.00 0.00 0.00 62 1010.3
20260507101026 68 306 4.0 7.0 0.00 0.00 0.00 62 1010.1
20260507100524 69 295 8.0 14.0 0.00 0.00 0.00 62 1010.1
20260507100022 69 307 5.0 10.0 0.00 0.00 0.00 62 1010.1
20260507095520 69 290 4.0 10.0 0.00 0.00 0.00 61 1010.0
20260507095103 69 291 5.0 11.0 0.00 0.00 0.00 60 1009.9
20260507095019 69 291 5.0 11.0 0.00 0.00 0.00 60 1009.9
20260507094517 69 306 4.0 9.0 0.00 0.00 0.00 59 1009.9
20260507094035 69 290 5.0 9.0 0.00 0.00 0.00 59 1009.9
20260507093534 69 289 5.0 14.0 0.00 0.00 0.00 58 1009.8
20260507093031 70 283 4.0 10.0 0.00 0.00 0.00 58 1009.8
20260507092529 70 285 4.0 10.0 0.00 0.00 0.00 59 1009.9
20260507092027 70 283 3.0 8.0 0.00 0.00 0.00 58 1009.7
20260507091525 70 297 4.0 8.0 0.00 0.00 0.00 58 1009.6
20260507091024 70 292 6.0 15.0 0.00 0.00 0.00 57 1009.7
20260507090522 70 294 5.0 9.0 0.00 0.00 0.00 57 1009.5
20260507090020 70 266 3.0 8.0 0.00 0.00 0.00 57 1009.4
20260507085519 70 298 5.0 13.0 0.00 0.00 0.00 58 1009.4
20260507085047 70 280 6.0 17.0 0.00 0.00 0.00 58 1009.4
20260507085016 70 280 6.0 17.0 0.00 0.00 0.00 58 1009.4
20260507084535 69 281 5.0 16.0 0.00 0.00 0.00 59 1009.4
20260507084048 69 281 6.0 15.0 0.00 0.00 0.00 58 1009.4
20260507084033 69 281 6.0 15.0 0.00 0.00 0.00 58 1009.4
20260507083531 69 288 6.0 15.0 0.00 0.00 0.00 59 1009.3
20260507083029 69 280 6.0 13.0 0.00 0.00 0.00 59 1009.2
20260507082528 69 284 6.0 11.0 0.00 0.00 0.00 59 1009.2
20260507082026 69 286 6.0 17.0 0.00 0.00 0.00 60 1009.1
20260507081524 69 285 4.0 13.0 0.00 0.00 0.00 60 1009.1
20260507081022 69 292 7.0 15.0 0.00 0.00 0.00 59 1009.0
20260507080520 69 288 6.0 13.0 0.00 0.00 0.00 59 1009.0
20260507080018 69 278 7.0 14.0 0.00 0.00 0.00 59 1009.0
20260507075517 69 288 7.0 15.0 0.00 0.00 0.00 59 1009.1
20260507075035 69 295 8.0 17.0 0.00 0.00 0.00 59 1009.0
20260507074533 69 280 7.0 18.0 0.00 0.00 0.00 59 1009.0
20260507074032 69 285 7.0 11.0 0.00 0.00 0.00 59 1009.0
20260507073530 69 281 6.0 15.0 0.00 0.00 0.00 59 1009.0
20260507073028 68 287 6.0 14.0 0.00 0.00 0.00 60 1008.8
20260507072526 68 251 5.0 9.0 0.00 0.00 0.00 60 1008.8
20260507072024 68 280 5.0 11.0 0.00 0.00 0.00 60 1008.7
20260507071522 68 277 6.0 11.0 0.00 0.00 0.00 59 1008.7
20260507071020 67 264 6.0 15.0 0.00 0.00 0.00 60 1008.7
20260507070518 67 280 6.0 14.0 0.00 0.00 0.00 61 1008.6
20260507070016 67 270 4.0 10.0 0.00 0.00 0.00 61 1008.5
20260507065535 67 259 5.0 13.0 0.00 0.00 0.00 61 1008.5
20260507065033 67 249 5.0 10.0 0.00 0.00 0.00 62 1008.4
20260507064531 66 281 4.0 11.0 0.00 0.00 0.00 62 1008.4
20260507064029 66 282 4.0 10.0 0.00 0.00 0.00 63 1008.4
20260507063527 65 278 4.0 9.0 0.00 0.00 0.00 64 1008.5
20260507063026 65 265 5.0 13.0 0.00 0.00 0.00 65 1008.4
20260507062524 65 222 3.0 7.0 0.00 0.00 0.00 66 1008.4
20260507062022 64 245 3.0 7.0 0.00 0.00 0.00 67 1008.4
20260507061520 64 254 3.0 7.0 0.00 0.00 0.00 67 1008.2
20260507061018 63 254 3.0 11.0 0.00 0.00 0.00 68 1008.3
20260507060516 63 247 4.0 8.0 0.00 0.00 0.00 69 1008.4
20260507060035 62 260 3.0 7.0 0.00 0.00 0.00 70 1008.4
20260507055534 62 184 3.0 8.0 0.00 0.00 0.00 71 1008.4
20260507055031 62 203 2.0 4.0 0.00 0.00 0.00 72 1008.3
20260507054529 61 225 2.0 4.0 0.00 0.00 0.00 72 1008.3
20260507054027 61 215 2.0 4.0 0.00 0.00 0.00 72 1008.3
20260507053526 61 181 2.0 6.0 0.00 0.00 0.00 73 1008.3
20260507053024 60 191 2.0 4.0 0.00 0.00 0.00 73 1008.3
20260507052522 60 208 1.0 3.0 0.00 0.00 0.00 74 1008.3
20260507052020 60 177 3.0 7.0 0.00 0.00 0.00 74 1008.3
20260507051518 59 177 2.0 4.0 0.00 0.00 0.00 74 1008.2
20260507051016 59 157 2.0 4.0 0.00 0.00 0.00 74 1008.2
20260507050536 59 154 0.0 3.0 0.00 0.00 0.00 74 1008.2
20260507050033 59 145 1.0 4.0 0.00 0.00 0.00 74 1008.2
20260507045531 59 179 1.0 3.0 0.00 0.00 0.00 72 1008.2
20260507045106 58 0.0 0.0 0.00 0.00 0.00 72 1008.0
20260507045029 58 0.0 0.0 0.00 0.00 0.00 72 1008.0
20260507044527 58 0.0 0.0 0.00 0.00 0.00 72 1008.0
20260507044025 58 0.0 0.0 0.00 0.00 0.00 72 1008.1
20260507043524 58 0.0 0.0 0.00 0.00 0.00 72 1008.1
20260507043022 58 0.0 0.0 0.00 0.00 0.00 72 1008.1
20260507042520 58 0.0 0.0 0.00 0.00 0.00 72 1008.1
20260507042049 58 0.0 0.0 0.00 0.00 0.00 72 1008.1
20260507042018 58 0.0 0.0 0.00 0.00 0.00 72 1008.1
20260507041516 58 304 0.0 1.0 0.00 0.00 0.00 72 1008.1
20260507041034 58 293 0.0 1.0 0.00 0.00 0.00 72 1007.9
20260507040532 58 0.0 0.0 0.00 0.00 0.00 71 1007.9
20260507040031 58 0.0 0.0 0.00 0.00 0.00 71 1007.8
20260507035528 58 0.0 0.0 0.00 0.00 0.00 71 1007.8
20260507035027 58 0.0 0.0 0.00 0.00 0.00 71 1007.7
20260507034525 58 0.0 0.0 0.00 0.00 0.00 71 1007.8
20260507034024 58 0.0 0.0 0.00 0.00 0.00 71 1007.7
20260507033521 58 0.0 0.0 0.00 0.00 0.00 71 1007.6
20260507033020 58 0.0 0.0 0.00 0.00 0.00 70 1007.6
20260507032518 58 0.0 0.0 0.00 0.00 0.00 70 1007.6
20260507032016 58 104 0.0 1.0 0.00 0.00 0.00 70 1007.5
20260507031534 58 0.0 0.0 0.00 0.00 0.00 70 1007.5
20260507031049 59 0.0 0.0 0.00 0.00 0.00 70 1007.3
20260507031032 59 0.0 0.0 0.00 0.00 0.00 70 1007.3
20260507030530 59 0.0 0.0 0.00 0.00 0.00 69 1007.3
20260507030029 59 0.0 0.0 0.00 0.00 0.00 69 1007.3
20260507025527 59 169 0.0 2.0 0.00 0.00 0.00 69 1007.4
20260507025025 59 169 0.0 1.0 0.00 0.00 0.00 69 1007.3
20260507024523 59 0.0 0.0 0.00 0.00 0.00 69 1007.2
20260507024021 60 0.0 0.0 0.00 0.00 0.00 69 1007.3
20260507023520 60 0.0 0.0 0.00 0.00 0.00 69 1007.4
20260507023017 60 0.0 0.0 0.00 0.00 0.00 69 1007.3
20260507022516 60 0.0 0.0 0.00 0.00 0.00 69 1007.4
20260507022034 60 0.0 0.0 0.00 0.00 0.00 69 1007.2
20260507021532 60 0.0 0.0 0.00 0.00 0.00 69 1007.3
20260507021030 60 0.0 0.0 0.00 0.00 0.00 69 1007.4
20260507020528 60 333 0.0 2.0 0.00 0.00 0.00 69 1007.5
20260507020027 60 315 1.0 3.0 0.00 0.00 0.00 70 1007.5
20260507015525 60 297 2.0 4.0 0.00 0.00 0.00 70 1007.4
20260507015023 60 300 1.0 7.0 0.00 0.00 0.00 71 1007.4
20260507014522 60 332 3.0 8.0 0.00 0.00 0.00 71 1007.3
20260507014020 61 315 3.0 7.0 0.00 0.00 0.00 70 1007.3
20260507013518 61 177 1.0 2.0 0.00 0.00 0.00 67 1007.1
20260507013016 61 171 2.0 3.0 0.00 0.00 0.00 67 1007.0
20260507012534 61 171 2.0 3.0 0.00 0.00 0.00 67 1007.0
20260507012033 61 178 2.0 3.0 0.00 0.00 0.00 67 1007.1
20260507011531 61 171 2.0 4.0 0.00 0.00 0.00 67 1007.0
20260507011109 61 175 2.0 7.0 0.00 0.00 0.00 67 1007.1
20260507011029 61 175 2.0 7.0 0.00 0.00 0.00 67 1007.1
20260507010528 61 170 3.0 4.0 0.00 0.00 0.00 67 1007.0
20260507010026 61 167 3.0 4.0 0.00 0.00 0.00 66 1007.0
20260507005524 61 169 2.0 3.0 0.00 0.00 0.00 66 1006.9
20260507005022 61 171 2.0 4.0 0.00 0.00 0.00 66 1006.9
20260507004520 62 170 2.0 6.0 0.00 0.00 0.00 67 1007.0
20260507004049 62 166 1.0 3.0 0.00 0.00 0.00 67 1007.1
20260507004018 62 166 1.0 3.0 0.00 0.00 0.00 67 1007.1
20260507003517 62 168 2.0 6.0 0.00 0.00 0.00 67 1007.0
20260507003035 62 175 0.0 3.0 0.00 0.00 0.00 66 1006.9
20260507002533 62 0.0 0.0 0.00 0.00 0.00 66 1007.0
20260507002031 62 0.0 0.0 0.00 0.00 0.00 66 1007.0
20260507001529 62 0.0 0.0 0.00 0.00 0.00 66 1007.0
20260507001027 62 0.0 0.0 0.00 0.00 0.00 66 1007.0
20260507000525 62 227 0.0 3.0 0.00 0.00 0.00 66 1007.0
20260507000339 62 177 2.0 6.0 0.00 0.00 0.00 67 1007.1
20260507000048 62 177 2.0 6.0 0.00 0.00 0.00 67 1007.1
20260507000023 62 177 2.0 6.0 0.00 0.00 0.00 67 1007.1
20260506235522 62 214 2.0 4.0 0.00 0.00 0.00 68 1007.2
20260506235020 62 286 3.0 9.0 0.00 0.00 0.00 68 1007.2
20260506234518 62 286 1.0 3.0 0.00 0.00 0.00 67 1007.0
20260506234018 62 196 1.0 3.0 0.00 0.00 0.00 67 1007.0
20260506233535 62 156 1.0 3.0 0.00 0.00 0.00 66 1007.1
20260506233107 62 188 2.0 4.0 0.00 0.00 0.00 65 1007.1
20260506233033 62 188 2.0 4.0 0.00 0.00 0.00 65 1007.1
20260506232532 62 198 1.0 7.0 0.00 0.00 0.00 65 1007.2
20260506232029 62 197 2.0 4.0 0.00 0.00 0.00 64 1007.2
20260506231528 62 181 2.0 4.0 0.00 0.00 0.00 64 1006.9
20260506231049 62 182 0.0 2.0 0.00 0.00 0.00 64 1007.0
20260506231026 62 182 0.0 2.0 0.00 0.00 0.00 64 1007.0
20260506230524 62 180 1.0 4.0 0.00 0.00 0.00 64 1007.0
20260506230345 62 0.0 0.0 0.00 0.00 0.00 63 1006.9
20260506230111 62 178 1.0 6.0 0.00 0.00 0.00 63 1007.0
20260506230022 62 178 1.0 6.0 0.00 0.00 0.00 63 1007.0
20260506225520 62 172 0.0 2.0 0.00 0.00 0.00 63 1007.0
20260506225019 62 0.0 0.0 0.00 0.00 0.00 63 1006.9
20260506224517 63 0.0 0.0 0.00 0.00 0.00 63 1006.9
20260506224035 63 0.0 0.0 0.00 0.00 0.00 62 1006.9
20260506223533 63 0.0 0.0 0.00 0.00 0.00 62 1006.9
20260506223032 63 0.0 0.0 0.00 0.00 0.00 62 1006.9
20260506222530 63 0.0 0.0 0.00 0.00 0.00 61 1007.0
20260506222028 64 0.0 0.0 0.00 0.00 0.00 61 1007.0
20260506221527 64 0.0 0.0 0.00 0.00 0.00 61 1006.9
20260506221025 64 0.0 0.0 0.00 0.00 0.00 61 1006.9
20260506220523 64 0.0 0.0 0.00 0.00 0.00 60 1006.9
20260506220020 64 0.0 0.0 0.00 0.00 0.00 60 1006.9
20260506215519 64 0.0 0.0 0.00 0.00 0.00 60 1006.9
20260506215017 64 0.0 0.0 0.00 0.00 0.00 60 1006.9
20260506214536 65 184 0.0 2.0 0.00 0.00 0.00 60 1007.0
20260506214033 65 0.0 0.0 0.00 0.00 0.00 59 1007.0
20260506213532 65 184 0.0 1.0 0.00 0.00 0.00 59 1007.0
20260506213030 65 161 0.0 1.0 0.00 0.00 0.00 59 1007.1
20260506212528 65 129 0.0 2.0 0.00 0.00 0.00 60 1007.1
20260506212026 65 154 1.0 6.0 0.00 0.00 0.00 60 1007.2
20260506211525 65 161 2.0 6.0 0.00 0.00 0.00 60 1007.3
20260506211023 65 170 3.0 8.0 0.00 0.00 0.00 60 1007.3
20260506210521 65 169 2.0 4.0 0.00 0.00 0.00 60 1007.3
20260506210019 65 169 2.0 6.0 0.00 0.00 0.00 61 1007.3
20260506205517 65 165 3.0 7.0 0.00 0.00 0.00 61 1007.4
20260506205036 65 167 3.0 7.0 0.00 0.00 0.00 61 1007.4
20260506204534 65 185 4.0 8.0 0.00 0.00 0.00 61 1007.5
20260506204032 66 196 5.0 13.0 0.00 0.00 0.00 62 1007.7
20260506203530 66 181 7.0 15.0 0.00 0.00 0.00 62 1007.6
20260506203028 66 190 8.0 17.0 0.00 0.00 0.00 63 1007.7
20260506202526 66 178 7.0 19.0 0.00 0.00 0.00 63 1007.6
20260506202024 67 183 7.0 21.0 0.00 0.00 0.00 62 1007.7
20260506201522 67 182 7.0 13.0 0.00 0.00 0.00 61 1007.7
20260506201020 67 173 5.0 19.0 0.00 0.00 0.00 59 1007.5
20260506200518 67 203 4.0 13.0 0.00 0.00 0.00 59 1007.5
20260506200016 67 208 4.0 8.0 0.00 0.00 0.00 59 1007.5
20260506195535 67 226 4.0 9.0 0.00 0.00 0.00 59 1007.3
20260506195033 67 237 5.0 15.0 0.00 0.00 0.00 58 1007.4
20260506194531 67 226 5.0 10.0 0.00 0.00 0.00 57 1007.4
20260506194029 67 218 6.0 14.0 0.00 0.00 0.00 56 1007.5
20260506193527 67 201 4.0 11.0 0.00 0.00 0.00 56 1007.5
20260506193048 68 221 2.0 13.0 0.00 0.00 0.00 54 1000.7
20260506193025 68 221 2.0 13.0 0.00 0.00 0.00 54 1007.2
20260506192523 68 151 0.0 1.0 0.00 0.00 0.00 54 1007.0
20260506192022 68 168 0.0 1.0 0.00 0.00 0.00 54 1007.1
20260506191520 68 0.0 0.0 0.00 0.00 0.00 54 1006.9
20260506191018 68 0.0 0.0 0.00 0.00 0.00 53 1006.9
20260506190516 69 0.0 0.0 0.00 0.00 0.00 53 1006.9
20260506190035 69 0.0 0.0 0.00 0.00 0.00 53 1006.8
20260506185533 69 0.0 0.0 0.00 0.00 0.00 53 1006.8
20260506185031 69 0.0 0.0 0.00 0.00 0.00 52 1006.9
20260506184529 70 0.0 0.0 0.00 0.00 0.00 51 1006.9
20260506184028 70 0.0 0.0 0.00 0.00 0.00 51 1006.8
20260506183525 70 0.0 0.0 0.00 0.00 0.00 50 1006.7
20260506183023 71 0.0 0.0 0.00 0.00 0.00 49 1006.6
20260506182520 71 0.0 0.0 0.00 0.00 0.00 49 1006.6
20260506182018 71 0.0 0.0 0.00 0.00 0.00 48 1006.6
20260506181516 72 0.0 0.0 0.00 0.00 0.00 47 1006.5
20260506181034 72 0.0 0.0 0.00 0.00 0.00 47 1006.5
20260506180532 72 0.0 0.0 0.00 0.00 0.00 46 1006.5
20260506180030 73 0.0 0.0 0.00 0.00 0.00 46 1006.4
20260506175528 73 0.0 0.0 0.00 0.00 0.00 46 1006.3
20260506175026 73 0.0 0.0 0.00 0.00 0.00 45 1006.4
20260506174524 74 0.0 0.0 0.00 0.00 0.00 44 1006.4
20260506174022 74 0.0 0.0 0.00 0.00 0.00 44 1006.3
20260506173520 74 0.0 0.0 0.00 0.00 0.00 43 1006.4
20260506173018 74 0.0 0.0 0.00 0.00 0.00 43 1006.3
20260506172517 75 285 1.0 2.0 0.00 0.00 0.00 42 1006.3
20260506172035 75 288 1.0 3.0 0.00 0.00 0.00 42 1006.3
20260506171534 75 284 1.0 3.0 0.00 0.00 0.00 41 1006.2
20260506171031 75 274 1.0 2.0 0.00 0.00 0.00 41 1006.2
20260506170530 76 268 2.0 6.0 0.00 0.00 0.00 41 1006.2
20260506170029 76 283 1.0 3.0 0.00 0.00 0.00 40 1006.2
20260506165526 76 276 2.0 6.0 0.00 0.00 0.00 40 1006.2
20260506165023 76 285 2.0 4.0 0.00 0.00 0.00 40 1006.2
20260506164521 76 266 2.0 4.0 0.00 0.00 0.00 40 1006.2
20260506164048 76 270 3.0 6.0 0.00 0.00 0.00 39 1006.2
20260506164019 76 270 3.0 6.0 0.00 0.00 0.00 39 1006.2
20260506163517 76 276 3.0 7.0 0.00 0.00 0.00 39 1006.1
20260506163035 76 274 3.0 8.0 0.00 0.00 0.00 40 1006.1
20260506162533 76 260 2.0 8.0 0.00 0.00 0.00 40 1006.2
20260506162032 76 278 3.0 7.0 0.00 0.00 0.00 39 1006.1